Stations météo

Publicité
Chateaudun, France (7140): Température de l'air & dewpoint: 26.03.2020 09:00:00 - 01.04.2020 09:00:00 (CEST)Chateaudun, France (7140): Température de l'air 5cm: 26.03.2020 09:00:00 - 01.04.2020 09:00:00 (CEST)Chateaudun, France (7140): Vitesse du vent & gusts: 26.03.2020 09:00:00 - 01.04.2020 09:00:00 (CEST)Chateaudun, France (7140): Direction du vent: 26.03.2020 09:00:00 - 01.04.2020 09:00:00 (CEST)Chateaudun, France (7140): reduced air pressure: 26.03.2020 09:00:00 - 01.04.2020 09:00:00 (CEST)Chateaudun, France (7140): visibility: 26.03.2020 09:00:00 - 01.04.2020 09:00:00 (CEST)Chateaudun, France (7140): Ensoleillement: 26.03.2020 09:00:00 - 01.04.2020 09:00:00 (CEST)Chateaudun, France (7140): Quantités de précipitations: 26.03.2020 09:00:00 - 01.04.2020 09:00:00 (CEST)
Date & Time tt [°C] td [°C] tt 5cm [°C] ff [km/h] ff [knt] fx [km/h] fx [knt] dd ppp [hPa] vv [km] sd [min] rr [mm]
01.04.2020 09:00:00 1,3 -2,8 -1,5 15 8 21 11 NNE 1022,5 13 60 0,0
01.04.2020 08:00:00 -0,7 -3,7 -2,6 12 6 16 8 NNE 1022,5 13 5 0,0
01.04.2020 07:00:00 -0,4 -3,4 -1,8 10 5 16 9 NNE 1022,5 11 0 0,0
01.04.2020 06:00:00 0,4 -3,0 -0,7 14 8 19 10 NNE 1022,2 11 0 0,0
01.04.2020 05:00:00 0,6 -2,6 -1,5 13 7 16 9 NNE 1022,5 10 0 0,0
01.04.2020 04:00:00 1,1 -2,1 -0,2 15 8 20 11 NNE 1022,8 9 0 0,0
01.04.2020 03:00:00 1,7 -1,6 0,4 16 9 20 11 NNE 1023,3 9 0 0,0
01.04.2020 02:00:00 2,5 -1,1 0,7 15 8 19 11 NNE 1023,5 11 0 0,0
01.04.2020 01:00:00 2,8 -2,1 1,4 13 7 21 11 NNE 1023,9 20 0 0,0
01.04.2020 00:00:00 3,6 -2,0 1,8 14 8 17 9 NNE 1024,1 21 0 0,0
31.03.2020 23:00:00 4,1 -2,3 2,7 13 7 16 9 NNE 1024,3 24 0 0,0
31.03.2020 22:00:00 5,2 -2,4 2,9 14 7 24 13 NE 1024,3 31 0 0,0
31.03.2020 21:00:00 7,7 -2,1 6,2 18 10 32 17 NE 1023,8 38 0 0,0
31.03.2020 20:00:00 9,7 -2,3 8,9 28 15 48 26 NE 1023,3 40 60 0,0
31.03.2020 19:00:00 11,0 -1,8 12,2 32 17 46 25 NE 1023,0 60 60 0,0
31.03.2020 18:00:00 11,6 -1,2 13,0 30 16 49 27 ENE 1023,1 25 54 0,0
31.03.2020 17:00:00 11,8 -1,4 12,9 33 18 50 27 NE 1023,4 26 49 0,0
31.03.2020 16:00:00 10,9 -1,9 13,1 29 16 48 26 NE 1024,0 60 46 0,0
31.03.2020 15:00:00 10,7 -1,1 11,8 33 18 52 28 NE 1024,8 60 37 0,0
31.03.2020 14:00:00 10,3 0,3 11,3 28 15 48 26 NE 1025,2 20 31 0,0
31.03.2020 13:00:00 9,5 0,4 11,0 31 17 50 27 NE 1025,6 19 53 0,0
31.03.2020 12:00:00 8,9 0,6 11,5 31 17 46 25 NE 1026,0 19 60 0,0
31.03.2020 11:00:00 7,8 0,7 9,2 32 17 46 25 ENE 1026,5 19 60 0,0
31.03.2020 10:00:00 5,9 1,0 3,6 26 14 39 21 NE 1026,4 14 60 0,0
31.03.2020 09:00:00 2,5 0,6 0,3 18 10 25 13 NNE 1026,5 9 60 0,0
31.03.2020 08:00:00 0,8 -0,7 -0,3 13 7 21 11 NNE 1026,3 8 3 0,0
31.03.2020 07:00:00 0,9 -0,7 0,0 15 8 23 13 NNE 1025,7 8 0 0,0
31.03.2020 06:00:00 1,4 -1,0 0,2 16 9 23 13 NNE 1025,5 11 0 0,0
31.03.2020 05:00:00 1,4 -1,7 0,0 16 8 25 14 NNE 1025,3 16 0 0,0
31.03.2020 04:00:00 2,2 -1,8 0,8 18 10 25 13 NNE 1025,4 25 0 0,0
31.03.2020 03:00:00 2,1 -2,1 1,1 15 8 27 15 NNE 1025,8 27 0 0,0
31.03.2020 02:00:00 2,9 -2,2 1,8 17 9 26 14 NNE 1025,9 31 0 0,0
31.03.2020 01:00:00 3,9 -2,5 2,7 20 11 28 15 NNE 1025,9 38 0 0,0
31.03.2020 00:00:00 4,3 -3,0 3,3 20 11 34 18 NNE 1026,0 54 0 0,0
30.03.2020 23:00:00 4,5 -3,8 2,8 19 10 29 15 NNE 1025,6 60 0 0,0
30.03.2020 22:00:00 5,1 -5,6 4,1 19 11 39 21 NNE 1025,5 60 0 0,0
30.03.2020 21:00:00 6,4 -6,2 5,4 26 14 45 25 NE 1024,8 60 0 0,0
30.03.2020 20:00:00 7,6 -7,3 6,9 30 16 59 32 NE 1024,3 49 60 0,0
30.03.2020 19:00:00 8,7 -10,3 9,6 37 20 61 33 NE 1024,0 30 60 0,0
30.03.2020 18:00:00 8,9 -11,7 10,9 43 23 61 33 NE 1024,0 22 60 0,0
30.03.2020 17:00:00 8,7 -11,3 11,4 42 23 66 35 NE 1024,5 21 60 0,0
30.03.2020 16:00:00 8,2 -12,3 10,8 45 24 70 38 NNE 1025,1 19 60 0,0
30.03.2020 15:00:00 7,9 -11,5 10,0 43 23 66 36 NNE 1025,9 21 60 0,0
30.03.2020 14:00:00 6,6 -10,7 9,0 42 23 63 34 NNE 1026,5 21 60 0,0
30.03.2020 13:00:00 5,3 -9,7 7,4 40 22 63 34 NNE 1027,2 22 60 0,0
30.03.2020 12:00:00 4,4 -8,0 6,0 45 24 64 35 NE 1028,1 22 60 0,0
30.03.2020 11:00:00 3,1 -8,3 4,1 46 25 65 35 NNE 1028,6 29 60 0,0
30.03.2020 10:00:00 1,9 -8,0 1,3 38 20 55 30 NNE 1028,8 43 60 0,0
30.03.2020 09:00:00 0,6 -8,1 -0,9 32 18 49 26 NNE 1028,8 54 60 0,0
30.03.2020 08:00:00 -0,4 -8,1 -1,2 27 15 46 25 NNE 1028,8 60 1 0,0
30.03.2020 07:00:00 -0,1 -7,6 -0,9 30 16 49 26 NNE 1028,4 60 0 0,0
30.03.2020 06:00:00 0,0 -7,3 -0,7 28 15 45 24 NNE 1028,6 60 0 0,0
30.03.2020 05:00:00 0,5 -7,0 -0,3 27 14 49 26 N 1028,4 60 0 0,0
30.03.2020 04:00:00 1,1 -6,9 0,4 29 16 55 30 N 1028,5 60 0 0,0
30.03.2020 03:00:00 2,4 -7,0 2,1 32 17 55 30 NNE 1028,7 60 0 0,0
30.03.2020 02:00:00 3,4 -6,6 3,1 34 18 51 28 NNE 1029,0 60 0 0,0
30.03.2020 01:00:00 3,7 -6,6 3,4 29 16 54 29 N 1029,1 60 0 0,0
30.03.2020 00:00:00 4,1 -5,9 3,7 29 16 63 34 N 1029,2 60 0 0,0
29.03.2020 23:00:00 4,8 -5,6 4,5 35 19 61 33 NNE 1029,0 60 0 0,0
29.03.2020 22:00:00 5,0 -5,1 4,5 28 15 55 30 NNE 1028,8 60 0 0,0
29.03.2020 21:00:00 5,0 -4,3 4,8 36 20 58 31 NNE 1028,7 60 0 0,0
29.03.2020 20:00:00 6,0 -6,0 5,7 37 20 66 36 NNE 1028,1 60 0 0,0
29.03.2020 19:00:00 6,7 -8,1 6,6 39 21 59 32 NNE 1027,5 52 4 0,0
29.03.2020 18:00:00 7,2 -8,0 7,3 40 21 63 34 NNE 1027,1 56 3 0,0
29.03.2020 17:00:00 8,5 -5,0 7,5 38 20 67 36 N 1027,0 20 16 0,0
29.03.2020 16:00:00 7,8 -5,0 7,8 36 20 61 33 NNE 1027,2 60 14 0,0
29.03.2020 15:00:00 7,7 -4,4 7,6 37 20 63 34 NNE 1027,3 30 12 0,0
29.03.2020 14:00:00 7,3 -4,8 7,6 35 19 59 32 N 1027,8 60 12 0,0
29.03.2020 13:00:00 6,8 -3,7 7,4 37 20 62 34 NNE 1027,8 36 32 0,0
29.03.2020 12:00:00 6,4 -3,0 6,6 39 21 61 33 NNE 1027,7 20 18 0,0
29.03.2020 11:00:00 6,3 -2,6 7,2 43 23 63 34 NNE 1027,8 20 60 0,0
29.03.2020 10:00:00 5,3 -2,1 4,6 34 19 57 31 NNE 1027,6 19 24 0,0
29.03.2020 09:00:00 4,5 -2,6 4,3 35 19 56 31 NNE 1027,4 45 0 0,0
29.03.2020 08:00:00 4,6 -3,2 3,8 37 20 62 33 NNE 1026,5 58 0 0,0
29.03.2020 07:00:00 4,4 -1,0 3,8 34 18 54 29 NNE 1026,1 39 0 0,0
29.03.2020 06:00:00 4,7 -0,7 4,1 29 16 48 26 NNE 1025,7 47 0 0,0
29.03.2020 05:00:00 5,6 0,8 5,1 30 16 50 27 N 1025,5 31 0 0,0
29.03.2020 04:00:00 5,5 1,4 5,0 29 16 51 28 N 1025,3 31 0 0,0
29.03.2020 03:00:00 5,8 2,1 5,1 26 14 49 26 N 1025,0 25 0 0,0
29.03.2020 02:00:00 6,2 2,5 5,7 27 15 55 30 N 1024,8 23 0 0,0
29.03.2020 01:00:00 7,0 3,1 6,4 24 13 48 26 N 1024,2 20 0 0,0
29.03.2020 00:00:00 8,0 3,3 7,2 26 14 51 28 N 1023,4 17 0 0,0
28.03.2020 23:00:00 9,8 3,5 9,0 30 16 49 26 N 1022,5 11 0 0,0
28.03.2020 22:00:00 11,1 3,6 10,0 22 12 41 22 N 1021,6 8 0 0,0
28.03.2020 21:00:00 12,2 4,7 11,2 20 11 32 17 N 1020,6 7 0 0,0
28.03.2020 20:00:00 13,4 5,8 12,4 16 9 29 16 N 1019,8 7 34 0,0
28.03.2020 19:00:00 15,2 5,4 15,7 16 9 28 15 N 1019,1 9 58 0,0
28.03.2020 18:00:00 15,9 6,0 17,9 14 8 25 14 N 1019,0 8 60 0,0
28.03.2020 17:00:00 15,7 5,0 18,4 16 9 26 14 NNE 1019,1 6 58 0,0
28.03.2020 16:00:00 15,1 5,3 20,2 14 8 30 16 N 1019,3 7 60 0,0
28.03.2020 15:00:00 14,8 5,3 22,0 12 7 22 12 NNW 1019,7 11 60 0,0
28.03.2020 14:00:00 13,3 6,2 18,1 10 5 24 13 N 1020,0 5 60 0,0
28.03.2020 13:00:00 11,1 5,0 17,5 14 8 21 11 N 1020,6 5 60 0,0
28.03.2020 12:00:00 9,8 5,0 14,7 12 7 21 11 NNW 1020,7 5 60 0,0
28.03.2020 11:00:00 8,5 4,3 8,9 11 6 19 10 N 1020,8 4,2 50 0,0
28.03.2020 10:00:00 5,8 3,1 6,1 9 5 15 8 N 1020,7 3,7 44 0,0
28.03.2020 09:00:00 3,9 2,1 1,2 8 5 13 7 NNW 1020,6 3,0 57 0,0
28.03.2020 08:00:00 2,7 1,2 0,6 6 3 13 7 N 1020,3 3,0 0 0,0
28.03.2020 07:00:00 2,7 1,1 0,7 7 4 11 6 N 1019,8 3,0 0 0,0
28.03.2020 06:00:00 3,3 1,3 1,3 8 5 15 8 NNW 1019,4 3,4 0 0,0
28.03.2020 05:00:00 3,3 1,3 1,6 9 5 15 8 N 1019,5 3,5 0 0,0
28.03.2020 04:00:00 3,5 1,0 1,0 9 5 14 8 N 1019,4 4,5 0 0,0
28.03.2020 03:00:00 3,9 1,3 1,8 9 5 15 8 N 1019,5 4,7 0 0,0
28.03.2020 02:00:00 4,2 1,4 2,2 8 5 15 8 N 1019,3 4,8 0 0,0
28.03.2020 01:00:00 4,6 1,4 2,3 8 4 15 8 N 1019,5 6 0 0,0
28.03.2020 00:00:00 5,8 1,3 -0,2 9 5 13 7 N 1019,5 7 0 0,0
27.03.2020 23:00:00 6,4 1,3 -0,1 5 3 10 5 N 1019,1 7 0 0,0
27.03.2020 22:00:00 7,1 1,2 3,4 6 4 16 9 N 1018,8 8 0 0,0
27.03.2020 21:00:00 8,6 1,3 6,0 10 5 17 9 N 1018,2 10 0 0,0
27.03.2020 20:00:00 10,6 1,1 9,6 13 7 27 14 N 1017,5 13 54 0,0
27.03.2020 19:00:00 12,0 1,0 12,4 13 7 28 15 N 1017,0 14 12 0,0
27.03.2020 18:00:00 12,3 1,0 13,3 16 9 28 15 N 1016,7 14 0 0,0
27.03.2020 17:00:00 12,7 0,1 15,1 11 6 24 13 N 1016,7 18 0 0,0
27.03.2020 16:00:00 12,3 0,4 14,6 13 7 24 13 N 1017,1 15 7 0,0
27.03.2020 15:00:00 12,2 -0,4 15,3 18 10 31 17 NNE 1017,5 13 50 0,0
27.03.2020 14:00:00 11,9 0,0 15,3 18 10 31 17 NNE 1018,0 12 60 0,0
27.03.2020 13:00:00 10,8 -0,4 15,3 16 9 27 14 NNE 1018,5 12 60 0,0
27.03.2020 12:00:00 8,7 -0,6 10,4 11 6 21 11 N 1019,0 13 60 0,0
27.03.2020 11:00:00 6,3 -1,1 7,5 13 7 19 10 N 1019,1 15 52 0,0
27.03.2020 10:00:00 4,4 -2,0 4,3 10 5 19 10 N 1019,1 14 60 0,0
27.03.2020 09:00:00 1,7 -2,6 -1,4 10 5 16 9 N 1019,2 11 55 0,0
27.03.2020 08:00:00 0,1 -3,5 -2,3 10 6 16 9 N 1019,0 10 0 0,0
27.03.2020 07:00:00 0,5 -3,6 -4,5 8 5 18 10 N 1018,6 12 0 0,0
27.03.2020 06:00:00 0,6 -3,9 -5,1 7 4 11 6 N 1018,5 12 0 0,0
27.03.2020 05:00:00 0,9 -3,8 -2,6 7 4 16 9 N 1018,4 12 0 0,0
27.03.2020 04:00:00 1,5 -3,8 -1,0 10 6 16 9 N 1018,4 14 0 0,0
27.03.2020 03:00:00 1,8 -3,9 -1,2 8 5 15 8 N 1018,6 15 0 0,0
27.03.2020 02:00:00 2,0 -4,1 -0,6 9 5 14 8 N 1018,5 17 0 0,0
27.03.2020 01:00:00 2,6 -3,5 -0,8 9 5 13 7 N 1018,6 16 0 0,0
27.03.2020 00:00:00 2,9 -3,5 -2,4 7 4 10 6 N 1018,6 18 0 0,0
26.03.2020 23:00:00 3,2 -3,8 0,3 9 5 11 6 NNE 1018,7 24 0 0,0
26.03.2020 22:00:00 4,4 -4,1 1,3 10 5 16 9 NNE 1018,5 26 0 0,0
26.03.2020 21:00:00 5,8 -4,1 3,4 12 7 21 11 NE 1018,2 31 0 0,0
26.03.2020 20:00:00 8,4 -4,1 7,0 18 10 32 17 ENE 1017,3 31 53 0,0
26.03.2020 19:00:00 9,9 -4,5 11,0 23 12 39 21 ENE 1016,6 37 60 0,0
26.03.2020 18:00:00 10,5 -5,1 13,4 27 15 42 23 ENE 1016,3 28 60 0,0
26.03.2020 17:00:00 10,6 -4,6 13,4 26 14 51 28 NE 1016,2 24 60 0,0
26.03.2020 16:00:00 10,2 -4,6 13,8 31 17 47 26 NE 1016,2 20 60 0,0
26.03.2020 15:00:00 9,9 -4,9 13,7 26 14 45 24 NE 1016,5 20 60 0,0
26.03.2020 14:00:00 9,0 -4,9 12,4 28 15 42 23 NE 1016,6 19 60 0,0
26.03.2020 13:00:00 8,4 -4,8 10,6 30 16 45 24 NE 1016,8 20 60 0,0
26.03.2020 12:00:00 7,1 -5,9 9,4 29 16 46 25 NE 1016,9 20 60 0,0
26.03.2020 11:00:00 5,9 -5,7 7,9 31 17 44 24 NE 1017,2 19 60 0,0
26.03.2020 10:00:00 4,7 -6,2 3,9 26 14 39 21 NE 1017,2 46 60 0,0
26.03.2020 09:00:00 - - - - - - - - - - - -

tt = Température de l'air
td = dewpoint
tt 5cm = Température de l'air 5cm
ff = Vitesse du vent
fx = gusts
dd = Direction du vent
ppp = reduced air pressure
vv = visibility
sd = Ensoleillement
rr = Quantités de précipitations

stations d'obs. à proximité